N900HS MMGL-MMAA

Flight info

Callsign N900HS
Flight time 1h 22m
Altitude 27000
Route EMIRI1B EMIRI DCT UPN UJ3 ACA
Aircraft PC12/L-SDFGRWY/S

Departure

Time 2026-05-06 00:40
Airport Guadalajara International Airport (MMGL)

Arrival

Time 2026-05-06 02:03
Airport General Juan N. Álvarez International Airport (MMAA)
Time Latitude Longitude Altitude Speed Heading
2026-05-06 00:23 20.51922 -103.31496 5025 ft 0 kts 123°
2026-05-06 00:34 20.51913 -103.31482 5025 ft 7 kts 120°
2026-05-06 00:34 20.51943 -103.31433 5026 ft 10 kts 30°
2026-05-06 00:34 20.52004 -103.31397 5026 ft 10 kts 27°
2026-05-06 00:35 20.52067 -103.31358 5026 ft 11 kts 36°
2026-05-06 00:35 20.52056 -103.31279 5026 ft 12 kts 113°
2026-05-06 00:35 20.52016 -103.31186 5026 ft 15 kts 114°
2026-05-06 00:35 20.51971 -103.31078 5026 ft 16 kts 114°
2026-05-06 00:36 20.51925 -103.30966 5026 ft 17 kts 113°
2026-05-06 00:36 20.51877 -103.30852 5026 ft 17 kts 114°
2026-05-06 00:36 20.51883 -103.30748 5025 ft 13 kts 23°
2026-05-06 00:36 20.51911 -103.30736 5025 ft 0 kts 23°
2026-05-06 00:38 20.51923 -103.30730 5025 ft 7 kts 24°
2026-05-06 00:38 20.51978 -103.30703 5025 ft 10 kts 24°
2026-05-06 00:39 20.52017 -103.30715 5025 ft 4 kts 287°
2026-05-06 00:39 20.52023 -103.30733 5025 ft 1 kts 292°
2026-05-06 00:39 20.52043 -103.30781 5026 ft 24 kts 293°
2026-05-06 00:39 20.52122 -103.30968 5027 ft 59 kts 294°
2026-05-06 00:40 20.52422 -103.31717 5169 ft 97 kts 296°
2026-05-06 00:40 20.52610 -103.32181 5424 ft 108 kts 298°
2026-05-06 00:40 20.53097 -103.33252 5773 ft 137 kts 297°
2026-05-06 00:40 20.53530 -103.34240 6012 ft 155 kts 294°
2026-05-06 00:41 20.53969 -103.35319 6369 ft 161 kts 298°
2026-05-06 00:41 20.54425 -103.36404 6865 ft 163 kts 295°
2026-05-06 00:41 20.54889 -103.37531 7364 ft 164 kts 295°
2026-05-06 00:41 20.55197 -103.38271 7667 ft 165 kts 294°
2026-05-06 00:42 20.55603 -103.39822 8314 ft 169 kts 264°
2026-05-06 00:42 20.55280 -103.40601 8698 ft 174 kts 233°
2026-05-06 00:42 20.53800 -103.41193 9389 ft 186 kts 176°
2026-05-06 00:42 20.52663 -103.40526 9903 ft 193 kts 136°
2026-05-06 00:43 20.51774 -103.39445 10383 ft 194 kts 135°
2026-05-06 00:43 20.50858 -103.38387 10872 ft 194 kts 136°
2026-05-06 00:43 20.49946 -103.37335 11375 ft 193 kts 135°
2026-05-06 00:43 20.49041 -103.36278 11883 ft 193 kts 135°
2026-05-06 00:44 20.48137 -103.35220 12370 ft 192 kts 136°
2026-05-06 00:44 20.47236 -103.34164 12846 ft 194 kts 135°
2026-05-06 00:44 20.46621 -103.33446 13161 ft 194 kts 136°
2026-05-06 00:44 20.45423 -103.32042 13807 ft 193 kts 135°
2026-05-06 00:45 20.44517 -103.30981 14218 ft 194 kts 136°
2026-05-06 00:45 20.43607 -103.29917 14631 ft 194 kts 136°
2026-05-06 00:45 20.42698 -103.28853 15040 ft 194 kts 136°
2026-05-06 00:45 20.41787 -103.27787 15445 ft 195 kts 135°
2026-05-06 00:46 20.40873 -103.26717 15849 ft 195 kts 135°
2026-05-06 00:46 20.40256 -103.25995 16121 ft 196 kts 135°
2026-05-06 00:46 20.39350 -103.24935 16488 ft 197 kts 135°
2026-05-06 00:46 20.38427 -103.23855 16867 ft 197 kts 135°
2026-05-06 00:47 20.37502 -103.22773 17245 ft 198 kts 136°
2026-05-06 00:47 20.36574 -103.21688 17619 ft 198 kts 136°
2026-05-06 00:47 20.35646 -103.20603 17995 ft 198 kts 136°
2026-05-06 00:47 20.34717 -103.19518 18353 ft 198 kts 136°
2026-05-06 00:48 20.33786 -103.18430 18678 ft 199 kts 136°
2026-05-06 00:48 20.32854 -103.17341 19001 ft 199 kts 136°
2026-05-06 00:48 20.31921 -103.16251 19321 ft 200 kts 136°
2026-05-06 00:48 20.30983 -103.15156 19653 ft 200 kts 136°
2026-05-06 00:49 20.30043 -103.14059 19949 ft 201 kts 136°
2026-05-06 00:49 20.29101 -103.12959 20247 ft 201 kts 136°
2026-05-06 00:49 20.28156 -103.11856 20541 ft 202 kts 136°
2026-05-06 00:49 20.27208 -103.10750 20833 ft 202 kts 137°
2026-05-06 00:50 20.26259 -103.09643 21127 ft 203 kts 137°
2026-05-06 00:50 20.25306 -103.08531 21418 ft 203 kts 137°
2026-05-06 00:50 20.24354 -103.07421 21713 ft 204 kts 137°
2026-05-06 00:50 20.23399 -103.06307 22016 ft 204 kts 137°
2026-05-06 00:51 20.22440 -103.05190 22323 ft 205 kts 137°
2026-05-06 00:51 20.21478 -103.04068 22624 ft 205 kts 137°
2026-05-06 00:51 20.20512 -103.02944 22857 ft 209 kts 137°
2026-05-06 00:51 20.19498 -103.01767 22859 ft 221 kts 137°
2026-05-06 00:52 20.18437 -103.00533 22865 ft 230 kts 136°
2026-05-06 00:52 20.17343 -102.99258 22867 ft 237 kts 136°
2026-05-06 00:52 20.16221 -102.97951 22870 ft 242 kts 136°
2026-05-06 00:52 20.15078 -102.96621 22871 ft 245 kts 136°
2026-05-06 00:53 20.13925 -102.95277 22873 ft 246 kts 136°
2026-05-06 00:53 20.12764 -102.93925 22871 ft 248 kts 136°
2026-05-06 00:53 20.11606 -102.92576 22880 ft 247 kts 136°
2026-05-06 00:53 20.10439 -102.91219 22875 ft 249 kts 136°
2026-05-06 00:54 20.09267 -102.89857 22880 ft 250 kts 136°
2026-05-06 00:54 20.08090 -102.88489 22883 ft 251 kts 136°
2026-05-06 00:54 20.06910 -102.87116 22882 ft 252 kts 136°
2026-05-06 00:54 20.05725 -102.85740 22882 ft 252 kts 136°
2026-05-06 00:55 20.04539 -102.84362 22883 ft 252 kts 136°
2026-05-06 00:55 20.03355 -102.82987 22886 ft 253 kts 136°
2026-05-06 00:55 20.02178 -102.81619 23115 ft 244 kts 136°
2026-05-06 00:55 20.01076 -102.80333 23639 ft 226 kts 136°
2026-05-06 00:56 20.00064 -102.79155 24079 ft 215 kts 137°
2026-05-06 00:56 19.99042 -102.77975 24239 ft 219 kts 137°
2026-05-06 00:56 19.98009 -102.76779 24446 ft 220 kts 137°
2026-05-06 00:56 19.96973 -102.75578 24656 ft 221 kts 137°
2026-05-06 00:57 19.95930 -102.74368 24863 ft 222 kts 137°
2026-05-06 00:57 19.94882 -102.73152 25054 ft 224 kts 137°
2026-05-06 00:57 19.93825 -102.71928 25255 ft 225 kts 137°
2026-05-06 00:57 19.92762 -102.70695 25455 ft 227 kts 136°
2026-05-06 00:58 19.91692 -102.69456 25664 ft 228 kts 137°
2026-05-06 00:58 19.90617 -102.68210 25876 ft 230 kts 137°
2026-05-06 00:58 19.89533 -102.66956 26074 ft 231 kts 136°
2026-05-06 00:58 19.88445 -102.65696 26270 ft 233 kts 137°
2026-05-06 00:59 19.87346 -102.64424 26447 ft 234 kts 137°
2026-05-06 00:59 19.86242 -102.63145 26645 ft 235 kts 137°
2026-05-06 00:59 19.85135 -102.61865 26827 ft 236 kts 137°
2026-05-06 00:59 19.84008 -102.60563 26889 ft 244 kts 137°
2026-05-06 01:00 19.82843 -102.59219 26883 ft 251 kts 137°
2026-05-06 01:00 19.81651 -102.57840 26887 ft 256 kts 136°
2026-05-06 01:00 19.80447 -102.56430 26889 ft 260 kts 133°
2026-05-06 01:00 19.79301 -102.54929 26885 ft 263 kts 133°
2026-05-06 01:01 19.78129 -102.53430 26887 ft 265 kts 134°
2026-05-06 01:01 19.76948 -102.51926 26890 ft 266 kts 134°
2026-05-06 01:01 19.75766 -102.50408 26892 ft 267 kts 133°
2026-05-06 01:01 19.74581 -102.48883 26898 ft 268 kts 133°
2026-05-06 01:02 19.73390 -102.47353 26897 ft 269 kts 133°
2026-05-06 01:02 19.72195 -102.45820 26899 ft 270 kts 133°
2026-05-06 01:02 19.70999 -102.44285 26907 ft 270 kts 133°
2026-05-06 01:02 19.69803 -102.42750 26908 ft 270 kts 133°
2026-05-06 01:03 19.68604 -102.41213 26911 ft 270 kts 133°
2026-05-06 01:03 19.67406 -102.39676 26912 ft 270 kts 133°
2026-05-06 01:03 19.66206 -102.38139 26919 ft 271 kts 133°
2026-05-06 01:03 19.65021 -102.36621 26919 ft 271 kts 133°
2026-05-06 01:04 19.63804 -102.35061 26922 ft 271 kts 133°
2026-05-06 01:04 19.62622 -102.33547 26924 ft 270 kts 133°
2026-05-06 01:04 19.61408 -102.31992 26938 ft 270 kts 133°
2026-05-06 01:04 19.60211 -102.30459 26956 ft 270 kts 133°
2026-05-06 01:05 19.59029 -102.28947 26975 ft 270 kts 133°
2026-05-06 01:05 19.57831 -102.27414 26993 ft 270 kts 133°
2026-05-06 01:05 19.56616 -102.25860 27008 ft 270 kts 133°
2026-05-06 01:05 19.55419 -102.24329 27021 ft 270 kts 133°
2026-05-06 01:06 19.54236 -102.22817 27039 ft 270 kts 133°
2026-05-06 01:06 19.53023 -102.21266 27052 ft 270 kts 133°
2026-05-06 01:06 19.51826 -102.19737 27068 ft 269 kts 133°
2026-05-06 01:06 19.50630 -102.18209 27082 ft 269 kts 133°
2026-05-06 01:07 19.49451 -102.16703 27096 ft 269 kts 133°
2026-05-06 01:07 19.48256 -102.15177 27111 ft 269 kts 133°
2026-05-06 01:07 19.47061 -102.13651 27128 ft 269 kts 133°
2026-05-06 01:07 19.45865 -102.12126 27143 ft 269 kts 133°
2026-05-06 01:08 19.44669 -102.10599 27150 ft 269 kts 133°
2026-05-06 01:08 19.43471 -102.09072 27152 ft 270 kts 133°
2026-05-06 01:08 19.42274 -102.07544 27151 ft 270 kts 133°
2026-05-06 01:08 19.41074 -102.06014 27150 ft 270 kts 133°
2026-05-06 01:09 19.39873 -102.04488 27149 ft 269 kts 134°
2026-05-06 01:09 19.38518 -102.03155 27149 ft 265 kts 143°
2026-05-06 01:09 19.37095 -102.01910 27151 ft 265 kts 143°
2026-05-06 01:09 19.35676 -102.00657 27149 ft 266 kts 143°
2026-05-06 01:10 19.34259 -101.99401 27151 ft 266 kts 143°
2026-05-06 01:10 19.32840 -101.98143 27149 ft 266 kts 143°
2026-05-06 01:10 19.31419 -101.96888 27136 ft 266 kts 143°
2026-05-06 01:10 19.29997 -101.95632 27117 ft 266 kts 143°
2026-05-06 01:11 19.28576 -101.94375 27099 ft 266 kts 143°
2026-05-06 01:11 19.27156 -101.93120 27081 ft 266 kts 143°
2026-05-06 01:11 19.25737 -101.91868 27063 ft 266 kts 143°
2026-05-06 01:11 19.24318 -101.90614 27043 ft 266 kts 143°
2026-05-06 01:12 19.22899 -101.89361 27027 ft 266 kts 143°
2026-05-06 01:12 19.21482 -101.88110 27003 ft 266 kts 143°
2026-05-06 01:12 19.20063 -101.86857 26980 ft 266 kts 142°
2026-05-06 01:12 19.18646 -101.85608 26958 ft 265 kts 143°
2026-05-06 01:13 19.17233 -101.84361 26939 ft 265 kts 142°
2026-05-06 01:13 19.15819 -101.83114 26919 ft 264 kts 142°
2026-05-06 01:13 19.14406 -101.81868 26894 ft 265 kts 142°
2026-05-06 01:13 19.12992 -101.80622 26875 ft 264 kts 142°
2026-05-06 01:14 19.10170 -101.78135 26855 ft 264 kts 143°
2026-05-06 01:14 19.08762 -101.76894 26859 ft 264 kts 142°
2026-05-06 01:14 19.07350 -101.75650 26851 ft 264 kts 142°
2026-05-06 01:15 19.05937 -101.74406 26850 ft 264 kts 142°
2026-05-06 01:15 19.04522 -101.73161 26847 ft 265 kts 142°
2026-05-06 01:15 19.03106 -101.71915 26849 ft 265 kts 142°
2026-05-06 01:15 19.01689 -101.70668 26842 ft 265 kts 142°
2026-05-06 01:16 19.00272 -101.69421 26839 ft 265 kts 142°
2026-05-06 01:16 18.98856 -101.68176 26833 ft 265 kts 142°
2026-05-06 01:16 18.97446 -101.66936 26837 ft 264 kts 142°
2026-05-06 01:16 18.96052 -101.65712 26836 ft 264 kts 142°
2026-05-06 01:17 18.94622 -101.64455 26834 ft 264 kts 142°
2026-05-06 01:17 18.93226 -101.63227 26831 ft 265 kts 142°
2026-05-06 01:17 18.91790 -101.61966 26826 ft 265 kts 142°
2026-05-06 01:17 18.90375 -101.60724 26828 ft 265 kts 142°
2026-05-06 01:18 18.88959 -101.59480 26821 ft 265 kts 142°
2026-05-06 01:18 18.87546 -101.58239 26820 ft 264 kts 142°
2026-05-06 01:18 18.86150 -101.57014 26820 ft 265 kts 142°
2026-05-06 01:18 18.84736 -101.55773 26812 ft 265 kts 142°
2026-05-06 01:19 18.83319 -101.54530 26813 ft 265 kts 142°
2026-05-06 01:19 18.81902 -101.53287 26808 ft 264 kts 142°
2026-05-06 01:19 18.80491 -101.52050 26806 ft 263 kts 142°
2026-05-06 01:19 18.79081 -101.50814 26801 ft 264 kts 142°
2026-05-06 01:20 18.77673 -101.49579 26797 ft 264 kts 143°
2026-05-06 01:20 18.76260 -101.48342 26799 ft 264 kts 142°
2026-05-06 01:20 18.74847 -101.47104 26796 ft 264 kts 142°
2026-05-06 01:20 18.73433 -101.45866 26792 ft 264 kts 142°
2026-05-06 01:21 18.72022 -101.44630 26790 ft 264 kts 142°
2026-05-06 01:21 18.70606 -101.43389 26787 ft 265 kts 142°
2026-05-06 01:21 18.69187 -101.42148 26783 ft 265 kts 142°
2026-05-06 01:21 18.67769 -101.40907 26778 ft 265 kts 142°
2026-05-06 01:22 18.66351 -101.39666 26780 ft 265 kts 142°
2026-05-06 01:22 18.64930 -101.38423 26777 ft 265 kts 142°
2026-05-06 01:22 18.63510 -101.37181 26776 ft 265 kts 142°
2026-05-06 01:22 18.62089 -101.35939 26774 ft 266 kts 142°
2026-05-06 01:23 18.60667 -101.34696 26771 ft 266 kts 142°
2026-05-06 01:23 18.59246 -101.33453 26768 ft 265 kts 142°
2026-05-06 01:23 18.57826 -101.32212 26768 ft 265 kts 142°
2026-05-06 01:23 18.56406 -101.30972 26765 ft 265 kts 142°
2026-05-06 01:24 18.54987 -101.29733 26763 ft 265 kts 142°
2026-05-06 01:24 18.53570 -101.28495 26762 ft 265 kts 142°
2026-05-06 01:24 18.52153 -101.27258 26760 ft 264 kts 142°
2026-05-06 01:24 18.50738 -101.26023 26761 ft 264 kts 142°
2026-05-06 01:25 18.49326 -101.24791 26756 ft 263 kts 142°
2026-05-06 01:25 18.47918 -101.23561 26758 ft 263 kts 142°
2026-05-06 01:25 18.46509 -101.22333 26760 ft 263 kts 142°
2026-05-06 01:25 18.45096 -101.21100 26759 ft 264 kts 142°
2026-05-06 01:26 18.43682 -101.19867 26757 ft 264 kts 142°
2026-05-06 01:26 18.42272 -101.18638 26764 ft 263 kts 142°
2026-05-06 01:26 18.40862 -101.17409 26762 ft 263 kts 142°
2026-05-06 01:26 18.39454 -101.16182 26759 ft 263 kts 142°
2026-05-06 01:27 18.38049 -101.14957 26754 ft 262 kts 142°
2026-05-06 01:27 18.36651 -101.13740 26761 ft 261 kts 142°
2026-05-06 01:27 18.35253 -101.12521 26767 ft 261 kts 142°
2026-05-06 01:27 18.33853 -101.11303 26762 ft 260 kts 142°
2026-05-06 01:28 18.32461 -101.10091 26775 ft 261 kts 142°
2026-05-06 01:28 18.31060 -101.08872 26776 ft 262 kts 142°
2026-05-06 01:28 18.29655 -101.07650 26772 ft 262 kts 142°
2026-05-06 01:28 18.28247 -101.06424 26771 ft 263 kts 142°
2026-05-06 01:29 18.26836 -101.05197 26771 ft 263 kts 142°
2026-05-06 01:29 18.25425 -101.03970 26771 ft 263 kts 142°
2026-05-06 01:29 18.24013 -101.02742 26774 ft 263 kts 142°
2026-05-06 01:29 18.22601 -101.01515 26774 ft 264 kts 142°
2026-05-06 01:30 18.21187 -101.00287 26778 ft 264 kts 142°
2026-05-06 01:30 18.19772 -100.99057 26778 ft 264 kts 142°
2026-05-06 01:30 18.18360 -100.97831 26788 ft 264 kts 141°
2026-05-06 01:30 18.17416 -100.97011 26777 ft 266 kts 142°
2026-05-06 01:31 18.15510 -100.95356 26777 ft 265 kts 142°
2026-05-06 01:31 18.14090 -100.94123 26781 ft 265 kts 142°
2026-05-06 01:31 18.13149 -100.93307 26781 ft 264 kts 142°
2026-05-06 01:31 18.11730 -100.92076 26783 ft 265 kts 142°
2026-05-06 01:32 18.10309 -100.90844 26787 ft 265 kts 142°
2026-05-06 01:32 18.08887 -100.89612 26786 ft 266 kts 142°
2026-05-06 01:32 18.07461 -100.88378 26794 ft 265 kts 142°
2026-05-06 01:32 18.06040 -100.87147 26792 ft 265 kts 142°
2026-05-06 01:33 18.04617 -100.85915 26797 ft 265 kts 142°
2026-05-06 01:33 18.03191 -100.84680 26807 ft 266 kts 142°
2026-05-06 01:33 18.01761 -100.83443 26807 ft 266 kts 142°
2026-05-06 01:33 18.00328 -100.82203 26813 ft 267 kts 142°
2026-05-06 01:34 17.98896 -100.80965 26818 ft 266 kts 142°
2026-05-06 01:34 17.97467 -100.79729 26821 ft 266 kts 142°
2026-05-06 01:34 17.96037 -100.78492 26825 ft 267 kts 142°
2026-05-06 01:34 17.94607 -100.77257 26827 ft 266 kts 142°
2026-05-06 01:35 17.93178 -100.76021 26830 ft 266 kts 142°
2026-05-06 01:35 17.91742 -100.74780 26639 ft 269 kts 141°
2026-05-06 01:35 17.90292 -100.73528 26408 ft 271 kts 141°
2026-05-06 01:35 17.88837 -100.72271 26169 ft 270 kts 141°
2026-05-06 01:36 17.87387 -100.71018 25944 ft 270 kts 141°
2026-05-06 01:36 17.85939 -100.69767 25717 ft 269 kts 141°
2026-05-06 01:36 17.84495 -100.68520 25488 ft 269 kts 141°
2026-05-06 01:36 17.83051 -100.67273 25264 ft 268 kts 141°
2026-05-06 01:37 17.81613 -100.66031 25039 ft 267 kts 141°
2026-05-06 01:37 17.80180 -100.64794 24814 ft 266 kts 140°
2026-05-06 01:37 17.78756 -100.63565 24596 ft 264 kts 140°
2026-05-06 01:37 17.77341 -100.62343 24377 ft 263 kts 140°
2026-05-06 01:38 17.75928 -100.61124 24160 ft 263 kts 140°
2026-05-06 01:38 17.74515 -100.59905 23944 ft 263 kts 140°
2026-05-06 01:38 17.73102 -100.58685 23735 ft 263 kts 140°
2026-05-06 01:38 17.71690 -100.57467 23520 ft 262 kts 140°
2026-05-06 01:39 17.70281 -100.56251 23273 ft 263 kts 140°
2026-05-06 01:39 17.68867 -100.55031 23021 ft 265 kts 140°
2026-05-06 01:39 17.67428 -100.53790 22765 ft 270 kts 140°
2026-05-06 01:39 17.65967 -100.52531 22516 ft 273 kts 140°
2026-05-06 01:40 17.64490 -100.51258 22273 ft 277 kts 140°
2026-05-06 01:40 17.62998 -100.49973 22015 ft 278 kts 140°
2026-05-06 01:40 17.61504 -100.48686 21777 ft 279 kts 140°
2026-05-06 01:40 17.60002 -100.47393 21535 ft 279 kts 140°
2026-05-06 01:41 17.58501 -100.46100 21295 ft 280 kts 140°
2026-05-06 01:41 17.56733 -100.44579 21012 ft 280 kts 140°
2026-05-06 01:41 17.55231 -100.43286 20769 ft 279 kts 140°
2026-05-06 01:41 17.53730 -100.41995 20536 ft 279 kts 140°
2026-05-06 01:42 17.52228 -100.40703 20300 ft 279 kts 140°
2026-05-06 01:42 17.51214 -100.39831 20147 ft 279 kts 140°
2026-05-06 01:42 17.49213 -100.38111 19928 ft 275 kts 140°
2026-05-06 01:42 17.47756 -100.36859 19933 ft 267 kts 140°
2026-05-06 01:43 17.46333 -100.35636 19933 ft 262 kts 140°
2026-05-06 01:43 17.44936 -100.34434 19930 ft 258 kts 140°
2026-05-06 01:43 17.43552 -100.33245 19925 ft 257 kts 140°
2026-05-06 01:43 17.42176 -100.32063 19925 ft 255 kts 139°
2026-05-06 01:44 17.40806 -100.30887 19921 ft 254 kts 139°
2026-05-06 01:44 17.39445 -100.29719 19920 ft 252 kts 140°
2026-05-06 01:44 17.38095 -100.28564 19920 ft 250 kts 140°
2026-05-06 01:44 17.36754 -100.27416 19919 ft 249 kts 139°
2026-05-06 01:45 17.35398 -100.26254 19647 ft 258 kts 139°
2026-05-06 01:45 17.33986 -100.25044 19257 ft 267 kts 139°
2026-05-06 01:45 17.32526 -100.23796 18831 ft 275 kts 140°
2026-05-06 01:45 17.31029 -100.22515 18415 ft 281 kts 139°
2026-05-06 01:46 17.29503 -100.21210 17964 ft 285 kts 140°
2026-05-06 01:46 17.27959 -100.19890 17410 ft 288 kts 139°
2026-05-06 01:46 17.26401 -100.18557 16858 ft 290 kts 140°
2026-05-06 01:46 17.24841 -100.17221 16321 ft 289 kts 139°
2026-05-06 01:47 17.23289 -100.15891 15789 ft 288 kts 139°
2026-05-06 01:47 17.21747 -100.14571 15277 ft 285 kts 139°
2026-05-06 01:47 17.20739 -100.13708 14935 ft 282 kts 139°
2026-05-06 01:47 17.18716 -100.11978 14263 ft 279 kts 139°
2026-05-06 01:48 17.17725 -100.11129 13928 ft 278 kts 139°
2026-05-06 01:48 17.16232 -100.09851 13407 ft 277 kts 139°
2026-05-06 01:48 17.14742 -100.08576 12857 ft 276 kts 139°
2026-05-06 01:48 17.13256 -100.07305 12313 ft 276 kts 139°
2026-05-06 01:49 17.11773 -100.06037 11781 ft 275 kts 139°
2026-05-06 01:49 17.10293 -100.04772 11259 ft 275 kts 139°
2026-05-06 01:49 17.08815 -100.03509 10743 ft 274 kts 139°
2026-05-06 01:49 17.07348 -100.02254 10242 ft 272 kts 139°
2026-05-06 01:50 17.05901 -100.01017 9743 ft 271 kts 140°
2026-05-06 01:50 17.04479 -99.99802 9209 ft 270 kts 140°
2026-05-06 01:50 17.03027 -99.98563 8671 ft 270 kts 140°
2026-05-06 01:50 17.01599 -99.97344 8521 ft 257 kts 140°
2026-05-06 01:51 17.00238 -99.96182 8339 ft 253 kts 140°
2026-05-06 01:51 16.98850 -99.94996 7928 ft 261 kts 140°
2026-05-06 01:51 16.97439 -99.93792 7533 ft 263 kts 141°
2026-05-06 01:51 16.96020 -99.92583 7127 ft 264 kts 141°
2026-05-06 01:52 16.94622 -99.91390 7012 ft 254 kts 141°
2026-05-06 01:52 16.93280 -99.90244 7008 ft 244 kts 140°
2026-05-06 01:52 16.92231 -99.88854 6644 ft 251 kts 115°
2026-05-06 01:52 16.91669 -99.87113 6256 ft 256 kts 105°
2026-05-06 01:53 16.91218 -99.85309 6005 ft 254 kts 104°
2026-05-06 01:53 16.90799 -99.83559 6004 ft 245 kts 104°
2026-05-06 01:53 16.90394 -99.81854 6000 ft 239 kts 104°
2026-05-06 01:53 16.89993 -99.80150 6004 ft 244 kts 104°
2026-05-06 01:54 16.89585 -99.78414 6007 ft 247 kts 104°
2026-05-06 01:54 16.89175 -99.76671 6005 ft 247 kts 104°
2026-05-06 01:54 16.88768 -99.74930 6005 ft 247 kts 104°
2026-05-06 01:54 16.88359 -99.73184 6001 ft 248 kts 104°
2026-05-06 01:55 16.87950 -99.71429 6008 ft 250 kts 104°
2026-05-06 01:55 16.87538 -99.69664 6001 ft 251 kts 104°
2026-05-06 01:55 16.87006 -99.67971 5933 ft 250 kts 118°
2026-05-06 01:55 16.85960 -99.66518 5492 ft 251 kts 133°
2026-05-06 01:56 16.84796 -99.65147 5091 ft 253 kts 130°
2026-05-06 01:56 16.83712 -99.63673 4733 ft 253 kts 126°
2026-05-06 01:56 16.82709 -99.62170 4380 ft 253 kts 125°
2026-05-06 01:56 16.81697 -99.60682 4131 ft 249 kts 127°
2026-05-06 01:57 16.80698 -99.59253 4001 ft 243 kts 127°
2026-05-06 01:57 16.79600 -99.57963 3866 ft 237 kts 142°
2026-05-06 01:57 16.78162 -99.57138 3615 ft 236 kts 162°
2026-05-06 01:57 16.76553 -99.56859 3369 ft 234 kts 182°
2026-05-06 01:58 16.74969 -99.57144 3088 ft 228 kts 201°
2026-05-06 01:58 16.73612 -99.57914 2768 ft 218 kts 219°
2026-05-06 01:58 16.72594 -99.59030 2429 ft 209 kts 237°
2026-05-06 01:58 16.71966 -99.60359 2130 ft 202 kts 253°
2026-05-06 01:59 16.71735 -99.61788 2000 ft 196 kts 268°
2026-05-06 01:59 16.71921 -99.63154 1997 ft 187 kts 285°
2026-05-06 01:59 16.72287 -99.64434 1896 ft 184 kts 285°
2026-05-06 01:59 16.72672 -99.65656 1606 ft 169 kts 287°
2026-05-06 02:00 16.73023 -99.66774 1301 ft 156 kts 285°
2026-05-06 02:00 16.73339 -99.67794 1089 ft 137 kts 285°
2026-05-06 02:00 16.73616 -99.68678 946 ft 121 kts 287°
2026-05-06 02:00 16.73870 -99.69495 802 ft 116 kts 284°
2026-05-06 02:01 16.74102 -99.70240 669 ft 103 kts 286°
2026-05-06 02:01 16.74316 -99.70931 550 ft 99 kts 286°
2026-05-06 02:01 16.74510 -99.71597 449 ft 94 kts 286°
2026-05-06 02:01 16.74715 -99.72241 274 ft 92 kts 291°
2026-05-06 02:02 16.74922 -99.72861 164 ft 90 kts 285°
2026-05-06 02:02 16.75124 -99.73505 64 ft 91 kts 286°
2026-05-06 02:02 16.75303 -99.74079 19 ft 72 kts 285°
2026-05-06 02:02 16.75435 -99.74502 18 ft 52 kts 288°
2026-05-06 02:03 16.75521 -99.74775 17 ft 32 kts 288°
2026-05-06 02:03 16.75606 -99.74958 16 ft 22 kts 310°
2026-05-06 02:03 16.75688 -99.75034 16 ft 13 kts 322°
2026-05-06 02:03 16.75743 -99.75068 17 ft 8 kts 334°
2026-05-06 02:04 16.75792 -99.75092 17 ft 8 kts 337°
2026-05-06 02:04 16.75849 -99.75117 17 ft 10 kts 336°
2026-05-06 02:04 16.75913 -99.75146 17 ft 10 kts 337°
2026-05-06 02:04 16.75978 -99.75173 17 ft 8 kts 344°
2026-05-06 02:05 16.76022 -99.75139 17 ft 11 kts 66°
2026-05-06 02:05 16.76050 -99.75068 17 ft 11 kts 64°
2026-05-06 02:05 16.76091 -99.75052 17 ft 8 kts 340°
2026-05-06 02:05 16.76101 -99.75083 17 ft 6 kts 246°
2026-05-06 02:06 16.76097 -99.75093 17 ft 1 kts 250°